This is the latest recevied weather packets stored in our database for station/object NR0A-4. If no packets are shown the sender has not sent any weather packets the latest 10 day(s).
| Time | Temp. | Humidity | Pressure | Rain* | Wind** | Luminosity | Snow |
|---|---|---|---|---|---|---|---|
| 1778019005 | 12.78° C | 35% | 1012.4 hPa | 0 mm | - | 0 W/m² | - |
| 1778018704 | 12.78° C | 34% | 1012.3 hPa | 0 mm | - | 526 W/m² | - |
| 1778018404 | 12.78° C | 35% | 1012.5 hPa | 0 mm | - | 469 W/m² | - |
| 1778018104 | 12.78° C | 34% | 1012.4 hPa | 0 mm | - | 415 W/m² | - |
| 1778017804 | 12.78° C | 34% | 1012.5 hPa | 0 mm | - | 288 W/m² | - |
| 1778017504 | 12.78° C | 35% | 1012.5 hPa | 0 mm | - | 306 W/m² | - |
| 1778017204 | 12.78° C | 35% | 1012.5 hPa | 0 mm | - | 267 W/m² | - |
| 1778016905 | 13.33° C | 34% | 1012.6 hPa | 0 mm | - | 478 W/m² | - |
| 1778016604 | 12.78° C | 34% | 1012.6 hPa | 0 mm | - | 557 W/m² | - |
| 1778016304 | 12.78° C | 34% | 1012.6 hPa | 0 mm | - | 338 W/m² | - |
| 1778016004 | 12.78° C | 35% | 1012.7 hPa | 0 mm | - | 485 W/m² | - |
| 1778015703 | 12.78° C | 37% | 1012.7 hPa | 0 mm | - | 436 W/m² | - |
| 1778015404 | 12.78° C | 34% | 1012.7 hPa | 0 mm | - | 480 W/m² | - |
| 1778015104 | 12.78° C | 34% | 1012.7 hPa | 0 mm | - | 399 W/m² | - |
| 1778014804 | 12.78° C | 36% | 1012.8 hPa | 0 mm | - | 524 W/m² | - |
| 1778014205 | 12.22° C | 37% | 1012.8 hPa | 0 mm | - | 464 W/m² | - |
| 1778013904 | 12.22° C | 36% | 1012.8 hPa | 0 mm | - | 362 W/m² | - |
| 1778013604 | 12.22° C | 37% | 1012.9 hPa | 0 mm | - | 406 W/m² | - |
| 1778013305 | 12.78° C | 35% | 1013 hPa | 0 mm | - | 315 W/m² | - |
| 1778013004 | 13.33° C | 36% | 1012.9 hPa | 0 mm | - | 355 W/m² | - |
| 1778012704 | 13.33° C | 36% | 1013.1 hPa | 0 mm | - | 649 W/m² | - |
| 1778012405 | 13.33° C | 36% | 1013.1 hPa | 0 mm | - | 622 W/m² | - |
| 1778012104 | 13.33° C | 39% | 1013 hPa | 0 mm | - | 668 W/m² | - |
| 1778011805 | 12.78° C | 38% | 1013.2 hPa | 0 mm | - | 689 W/m² | - |
| 1778011504 | 12.78° C | 36% | 1013.2 hPa | 0 mm | - | 408 W/m² | - |
* Rain latest hour (hover to see other rain measurements)
** Current wind speed in m/s (hover to see current wind gust speed)